Location: Clinton NY
(43.0598°N, 75.3602°W)
Time: 11:15:26
(UTC-04:00)

Daily predictions for brighter satellites

Satellite Brightness Start Highest point End
(mag) Time Altitude Azimuth Time Altitude Azimuth Time Altitude Azimuth
Meteor 1-24 Rocket 3.7 19:02:05 10° N 19:07:44 80° E 19:13:10 10° SSE
SAR-Lupe-1 4.4 19:07:19 10° SE 19:10:41 43° ENE 19:14:05 10° N
Cosmos-2242 4.0 19:07:31 10° SE 19:11:08 26° E 19:14:45 10° NNE
Cosmos 1437 3.4 19:08:26 10° NNW 19:11:41 61° W 19:14:54 10° S
Cosmos 1452 Rocket 3.7 19:09:21 10° NNW 19:14:31 54° ENE 19:19:39 10° SE
OAO 3 Rocket 4.4 19:10:22 10° WSW 19:14:31 31° S 19:18:45 10° ESE
MSX 4.2 19:10:28 10° S 19:16:12 73° WSW 19:21:58 10° NNW
Cosmos 2034 Rocket 4.3 19:13:24 10° SSE 19:19:17 45° E 19:25:16 10° NNE
Cosmos 1464 Rocket 4.0 19:13:37 10° S 19:19:43 60° E 19:25:48 10° NNE
In-Cosmos 22 4.4 19:14:44 10° N 19:20:25 54° ENE 19:26:02 10° SSE
Cosmos 1470 4.5 19:19:29 10° ESE 19:21:27 14° E 19:23:24 10° NE
DMSP B5D1-3 4.5 19:16:57 10° NNE 19:22:04 76° ESE 19:27:10 10° S
Cosmos 2333 Rocket 4.1 19:18:51 10° WSW 19:24:00 33° NW 19:29:10 10° N
CZ-4C R/B 3.8 19:22:55 10° WSW 19:27:56 36° NW 19:33:35 10° NNE
Cosmos 1674 4.1 19:25:21 10° NNE 19:28:15 20° ENE 19:31:10 10° ESE
CENTAUR R/B 3.4 19:25:58 10° SSE 19:30:39 24° ESE 19:35:44 10° ENE
SKYMED 2 4.2 19:27:26 10° N 19:31:45 63° WNW 19:36:02 10° SSW
ATLAS CENTAUR R/B 3.6 19:27:30 10° SW 19:32:25 76° SE 19:48:26 10° NE
Cosmos 1408 Rocket 3.5 19:28:34 10° N 19:32:56 70° E 19:37:13 10° SSE
SJ-6B 2.8 19:29:17 10° SSE 19:33:16 81° ENE 19:37:24 10° N
Cosmos 1420 Rocket 4.3 19:29:33 10° N 19:34:40 46° ENE 19:39:46 10° SE
Cosmos 724 4.4 19:30:51 10° SSW 19:36:40 62° ESE 19:42:41 10° NE
ATLAS 5 CENTAUR R/B 1.8 19:32:49 10° SSW 19:37:37 87° ESE 19:42:50 10° NE
FengYun 1-2 T 4.5 19:35:37 10° SE 19:40:51 47° ENE 19:46:05 10° N
NOSS 3-2 (C) 3.6 19:35:05 10° SW 19:41:11 84° NW 19:47:54 10° NE
Cosmos 2237 Rocket 4.3 19:37:21 10° WSW 19:42:12 28° NW 19:47:03 10° N
Cosmos 1484 Rocket 4.4 19:40:36 10° SSW 19:44:11 38° W 19:47:52 10° NNW
ALOS 2.9 19:42:40 10° SE 19:46:55 36° ENE 19:51:11 10° N
Cosmos 1758 3.3 19:43:34 10° S 19:47:38 74° E 19:51:45 10° NNE
Helios 1A 3.0 19:46:52 10° SSE 19:51:00 60° ENE 19:55:11 10° N
Spot 2 Rocket 3.4 19:46:19 10° SSE 19:51:19 73° ENE 19:56:22 10° N
ISS -2.7 19:50:31 10° SSW 19:53:32 36° SE 19:54:41 27° E
Cosmos 1048 Rocket 4.2 19:49:38 10° S 19:54:42 48° ESE 19:59:44 10° NNE
Cosmos 1544 3.1 19:53:32 10° S 19:57:13 62° E 20:00:56 10° NNE
Cosmos 1269 Rocket 4.0 19:52:27 10° S 19:57:38 60° ESE 20:02:50 10° NNE
METEOR-M 4.2 19:54:19 10° SSE 19:59:40 86° WSW 20:05:04 10° NNW
Resurs 1-3 3.5 19:56:17 10° SSE 20:00:38 68° ENE 20:05:01 10° N
Meteor 1-21 Rocket 4.1 19:55:33 10° N 20:01:08 87° ENE 20:06:40 10° S
SL-8 R/B 3.7 19:56:41 10° SW 20:01:24 61° SSE 20:04:21 22° ENE
Cosmos 1743 Rocket 3.5 19:58:28 10° N 20:02:56 70° E 20:07:18 10° SSE
SL-16 R/B 3.6 19:58:19 10° SW 20:03:38 40° WNW 20:09:00 10° NNE
Resurs 01 Rocket 1.7 20:01:50 10° SSE 20:06:17 82° WSW 20:10:45 10° NNW
HJ-1C 3.9 20:06:46 10° S 20:10:05 61° W 20:13:26 10° NNW
USA 215 3.2 20:06:41 10° NE 20:13:10 64° SE 20:19:38 10° SW
Cosmos 158 Rocket 4.2 20:08:54 10° S 20:13:26 40° ESE 20:17:59 10° NE
FENGYUN 3A 3.6 20:10:26 10° SSE 20:15:45 69° ENE 20:21:08 10° N
CZ-2D R/B 3.3 20:15:36 33° SE 20:17:05 55° ENE 20:20:55 10° N
Helios 1B rocket 2.8 20:19:05 10° N 20:23:10 65° WNW 20:27:14 10° SSW
Nadezhda 4 Rocket 4.1 20:17:21 10° N 20:23:39 81° W 20:29:51 10° S
Abrixas 2.5 20:24:06 10° WSW 20:26:59 79° WNW 20:26:59 79° WNW
H-2A R/B 2.6 20:28:08 42° SSE 20:29:22 76° ENE 20:33:15 10° N
GP-B 3.2 20:25:32 10° NNE 20:29:53 52° E 20:30:36 47° ESE
Cosmos 1092 Rocket 3.9 20:26:25 10° N 20:32:40 88° E 20:38:48 10° S
CZ-4B DEB 3.0 20:31:57 48° SSW 20:32:42 70° W 20:35:59 10° NNW
CZ-4B DEB 4.5 20:34:21 69° ENE 20:34:21 69° ENE 20:37:49 10° N
ERS-1 Rocket 3.7 20:35:35 34° ENE 20:35:35 34° ENE 20:39:51 10° N
GPS 2-04 Rocket1 4.2 20:34:42 10° SW 20:36:40 21° SSW 20:36:40 21° SSW
Gbstr 26 Del rocket 3.3 20:34:13 10° SW 20:38:42 64° SE 20:39:49 50° E
Cosmos 1655 Rocket 4.1 20:32:47 10° N 20:38:50 51° ENE 20:40:33 40° ESE
Cosmos 1943 Rocket 2.7 20:33:53 10° N 20:39:08 38° ENE 20:39:37 38° ENE
Meteor 1-29 4.3 20:37:34 10° N 20:40:53 40° WNW 20:44:10 10° SW
Cosmos 2142 Rocket 4.4 20:35:11 10° S 20:41:30 71° E 20:47:53 10° NNE
Cosmos 2369 Rocket 2.1 20:37:16 10° NNW 20:42:58 88° ENE 20:45:20 37° SSE
H-2A R/B 4.3 20:46:02 14° NNE 20:46:02 14° NNE 20:47:00 10° NNE
Cosmos 1943 3.0 20:39:11 10° SSW 20:44:48 80° ESE 20:50:27 10° NNE
Cosmos 2026 Rocket 3.9 20:38:46 10° N 20:44:50 62° E 20:46:56 40° SE
Cosmos 1110 Rocket 4.0 20:40:13 10° NNW 20:45:29 60° ENE 20:46:09 55° E
Cosmos 2058 3.8 20:45:14 10° N 20:47:53 35° NNE 20:47:53 35° NNE
Cosmos 1634 Rocket 3.9 20:43:08 10° S 20:49:23 85° E 20:55:37 10° N
Cosmos 2151 2.8 20:47:57 10° N 20:52:06 86° N 20:52:06 86° N
Cosmos 2263 4.1 20:46:36 10° NNW 20:52:26 77° ENE 20:53:43 55° SE
Cosmos 1733 3.9 20:51:23 10° SSW 20:55:11 53° W 20:58:59 10° N
Cosmos 1470 4.0 20:53:28 10° SSW 20:57:10 41° WNW 21:00:52 10° N
Cosmos 839 Rocket 4.2 20:53:45 10° NW 21:01:25 80° WSW 21:03:47 43° SSE
ASTEX 1 4.3 20:58:56 10° N 21:03:38 47° WNW 21:08:17 10° SSW
Meteor 2-20 4.4 21:06:43 10° N 21:12:33 64° ENE 21:12:33 64° ENE
Meteor 2-1 Rocket 4.2 21:16:32 78° NE 21:16:32 78° NE 21:22:09 10° NNE
Cosmos 1331 Rocket 4.0 21:12:20 10° NNW 21:17:26 80° WNW 21:17:26 80° WNW
CENTAUR R/B 2.8 21:14:30 10° SW 21:20:34 65° NW 21:27:30 10° NNE
ATLAS 5 CENTAUR R/B 4.3 21:19:26 10° W 21:23:05 20° NNW 21:26:58 10° NNE
ALOS 4.4 21:20:39 10° SSW 21:24:26 24° W 21:28:14 10° NW
Meteor 1-16 Rocket 4.4 21:22:42 38° SW 21:24:38 63° WNW 21:29:56 10° N
ISS 0.0 21:27:01 10° W 21:27:24 12° W 21:27:24 12° W
Envisat 3.9 21:42:35 45° NW 21:42:35 45° NW 21:46:10 10° NNW
USA 215 4.0 21:53:08 30° NNE 21:56:02 47° NNW 22:02:13 10° W
H-2A R/B 4.5 22:01:01 13° N 22:01:01 13° N 22:01:36 10° N
Cosmos 1943 Rocket 3.9 22:17:51 10° NW 22:21:10 27° WNW 22:21:10 27° WNW
CZ-3A R/B 4.3 22:02:06 10° SW 22:27:53 72° SSW 22:27:53 72° SSW
